Regional Weather Roundup
Issued by NWS Upton, NY

Current Version | Previous Version | Text Only | Print | Product List | Glossary On
Versions: 1 2 3 4 5 6 7 8 9 10 11 12 13 14 15 16 17 18 19 20 21 22 23 24 25 26 27
000
ASUS41 KOKX 150805
RWROKX
REGIONAL WEATHER ROUNDUP
NATIONAL WEATHER SERVICE NEW YORK NY
400 AM EDT TUE APR 15 2014

NOTE: "FAIR" INDICATES FEW OR NO CLOUDS BELOW 12,000 FEET WITH NO
SIGNIFICANT WEATHER AND/OR OBSTRUCTIONS TO VISIBILITY.

NYZ071-072-176-178-NJZ106-104-150900-
NEW YORK CITY METRO AREA


CITY           SKY/WX    TMP DP  RH WIND       PRES   REMARKS
CENTRAL PARK   CLOUDY    58  53  84 S5        29.84F
LAGUARDIA APRT CLOUDY    57  54  89 S14       29.81F
KENNEDY INTL   FOG       54  52  93 S25G32    29.84F VSB 1/8
NEWARK/LIBERTY CLOUDY    64  58  80 S9        29.80F
TETERBORO      CLOUDY    64  56  75 S9        29.79F
$$

NYZ177-179-078>081-150900-
LONG ISLAND NEW YORK

CITY           SKY/WX    TMP DP  RH WIND       PRES   REMARKS
FARMINGDALE    FOG       53  53 100 S16G24    29.85F VSB 3/4
ISLIP          FOG       55  53  93 S13       29.84F VSB 1/2
SHIRLEY        FOG       53  52  96 S14       29.88F VSB 1/2
WESTHAMPTON    FOG       53  52  96 S8        29.89F VSB 1/2
MONTAUK POINT    N/A     53  50  89 S10G20    29.92S
$$

NYZ052-065-067-150900-
HUDSON VALLEY

CITY           SKY/WX    TMP DP  RH WIND       PRES   REMARKS
WHITE PLAINS   FOG       56  55  97 VRB5      29.82S VSB 1
NEWBURGH       MOCLDY    63  57  82 S12G23    29.78F
MONTGOMERY     LGT RAIN  64  55  72 S10       29.75F
POUGHKEEPSIE   CLOUDY    65  56  72 S9G20     29.76F
ALBANY         CLOUDY    64  54  69 S15G29    29.70F
$$

NJZ001-105-106-008-010-013-015-019>022-104-150900-
NEW JERSEY

CITY           SKY/WX    TMP DP  RH WIND       PRES   REMARKS
NEWARK/LIBERTY CLOUDY    64  58  80 S9        29.80F
TETERBORO      CLOUDY    64  56  75 S9        29.79F
CALDWELL       CLOUDY    64  58  80 S7        29.79F
MORRISTOWN     CLOUDY    66  57  72 S6        29.79S
SOMERVILLE     CLOUDY    64  57  78 SE6       29.77F
LINDEN         FAIR      66  59  79 S6        29.82S
SUSSEX         CLOUDY    63  57  81 VRB3      29.75F
ANDOVER          N/A     60  57  89 VRB3      29.76F
TRENTON        LGT RAIN  64  59  83 S12       29.79S
MILLVILLE      CLOUDY    61  60  97 VRB7      29.80F
ATLANTIC CITY  LGT RAIN  60  59  96 S14G26    29.83F
WRIGHTSTOWN    LGT RAIN  63  61  93 S14G24    29.80R
TOMS RIVER     CLOUDY    61  57  88 S14G22    29.84S
BELMAR         CLOUDY    63  55  77 S12G21    29.83S
$$

PAZ047>061-062-071-150900-
EASTERN PENNSYLVANIA

CITY           SKY/WX    TMP DP  RH WIND       PRES   REMARKS
PHILADELPHIA   CLOUDY    63  58  83 S10       29.78F
ALLENTOWN      CLOUDY    64  56  75 S14       29.74F
SCRANTON       CLOUDY    65  55  70 S21G29    29.68F
$$

CTZ002-004>006-009-010-012-RIZ004-006-007-MAZ004-011-015-150900-
SOUTHERN NEW ENGLAND
 IN CT

CITY           SKY/WX    TMP DP  RH WIND       PRES   REMARKS
BRADLEY INTL   CLOUDY    62  57  83 S16       29.83R
HARTFORD       CLOUDY    60  58  92 S16G30    29.84S FOG
DANBURY        CLOUDY    59  56  89 S10       29.83F
WTRBRY/OXFORD  CLOUDY    57  54  88 S17G28    29.87S VSB 3/4
BRIDGEPORT     FOG       54  53  97 SW8       29.85F VSB 3/4
MERIDEN        CLOUDY    57  56  96 S12       29.86S FOG
NEW HAVEN      FOG       54  52  93 SW3       29.87S VSB 1
CHESTER        FOG       55  55 100 S9G16     29.90R VSB 1/4
GROTON         CLOUDY    51  51 100 S8        29.91R FOG
WILLIMANTIC    LGT RAIN  60  58  92 S17       29.88S FOG

 IN RI

CITY           SKY/WX    TMP DP  RH WIND       PRES   REMARKS
PROVIDENCE     LGT RAIN  59  56  89 SW13G25   29.91F
BLOCK ISLAND   CLOUDY    50  45  81 S14       29.92S
WESTERLY       CLOUDY    51  49  92 S7        29.92S

 IN MA

CITY           SKY/WX    TMP DP  RH WIND       PRES   REMARKS
BOSTON         CLOUDY    60  55  83 S21G30    29.88S
WORCESTER      CLOUDY    59  56  89 SW23G30   29.86S
WESTFIELD      CLOUDY    62  57  83 S14       29.82R
PROVINCETOWN   CLOUDY    52  48  87 MISG      29.93F
NANTUCKET      MOCLDY    50  47  89 S15G23    29.97F
$$

ANZ330-335-338-340-345-350-353-355-150900-
COASTAL MARINE OBSERVATIONS


STATION/POSITION TIME  SKY/WX   TEMP    WIND        PRES    VSBY  WAVE
                                AIR SEA DIR/SP/G                  HT/PER
                 (UTC)          (F)     (DEG/KT/KT) (MB)    (MI)  (FT/S)
NY HARB ENTRANCE 0800            47 43  200/ 12/ 14 1010.5
4S FIRE IS       0700               45                N/A           6/ 7
23SW MTP         0800            50 43  200/ 17/ 21 1012.0          6/ 8
HUDSON CANYON    0700            52 46  170/ 16/ 17 1012.8          6/ 8
EXECUTION ROCKS  0800            55 43  200/ 12/ 21   N/A
WESTERN LI SOUND 0800            56     190/ 19/ 23   N/A           2/ 3
CENTRAL LI SOUND 0700            51 42  200/ 14/ 17   N/A           3/ 4
EASTERN LI SOUND NOT AVBL
ROBBINS REEF     0800            54     170/ 13/ 14   N/A
$$


>>>>>>>>>>>>>>>>>>>>>>>>>>>> KEY <<<<<<<<<<<<<<<<<<<<<<<<<<<
>                                                          <
>     SKY/WX - SKY CONDITION/PRESENT WEATHER               <
>     TMP    - TEMPERATURE IN FAHRENHEIT                   <
>     DP     - DEWPOINT IN FAHRENHEIT                      <
>     RH     - RELATIVE HUMIDITY IN PERCENT                <
>     WIND   - DIRECTION AND SPEED IN MPH                  <
>     PRES   - MEAN SEA LEVEL PRESSURE IN INCHES OF HG     <
>     WCI    - WIND CHILL INDEX                            <
>     VSB    - VISIBILITY IN MILES                         <
>     HX     - HEAT INDEX                                  <
>     TC     - TEMPERATURE IN CELSIUS                      <
>     VRB    - VARIABLE WIND DIRECTION                     <
>                                                          <
>>>>>>>>>>>>>>>>>>>>>>>>>>>> KEY <<<<<<<<<<<<<<<<<<<<<<<<<<<





USA.gov is the U.S. government's official web portal to all federal, state and local government web resources and services.